www.pogodaiklimat.ru

Погода и климат >> Архив погоды >> ОАЭ >> Dubai


АРХИВ ПОГОДЫ в Dubai

Время (UTC), дата Ветер
(напр.,м/с)
 
Видим.   Явления Облачность Т
(С)
Тd
(С)
f
(%)
Тe
(С)
Тes
(С)
Комфортность P
(гПа)
Po
(гПа)
Тmin
(С)
Tmax
(С)
R
(мм)
S
(см)
21 14.02 СВ 5 10 км 6/0
[Ac trans]
+22.7 +17.7 73 +28 +28 душно 1019.4 1018.9
00 15.02 СВ 5 10 км 6/0
[Ac trans]
+22.9 +16.6 68 +28 +28 душно 1018.7 1018.2
03 15.02 В 4 10 км 6/0
[Ac trans]
+22.5 +16.4 68 +27 +27 душно 1019.6 1019.1
06 15.02 В 5 10 км 10/0
[Ac As Ci sp]
+23.5 +15.7 62 +27 +29 душно 1020.3 1019.8 +22.2
09 15.02 В 4 10 км 10/0
[Ac As Ci sp]
+26.2 +16.3 54 +30 +34 душно 1018.6 1018.1
12 15.02 В 4 10 км 9/0
[Ac trans Ci sp]
+27.2 +15.1 48 +30 +32 душно 1016.0 1015.5
15 15.02 ЮВ 2 10 км 10/0
[Ac As Ci sp]
+25.2 +18.0 64 +30 +30 душно 1016.3 1015.8
18 15.02 ЮВ 4 10 км 8/0
[Ac trans]
+24.4 +17.3 65 +28 +28 душно 1017.6 1017.1 +27.9
21 15.02 С 4 10 км слабый дождь 9/0 2000 м
[Ac trans]
+23.5 +17.8 70 +28 +28 душно 1018.5 1018.0
00 16.02 СВ 3 10 км слабый дождь 10/0
[As trans]
+23.0 +16.9 69 +28 +28 душно 1017.5 1017.0 0.0
06 16.02 СВ 5 8000 м мгла {дождь} 10/0
[As trans]
+21.7 +18.0 79 +26 +28 душно 1020.6 1020.1 +21.0 0.0
09 16.02 СВ 5 10 км 10/0
[As trans]
+23.2 +16.4 66 +28 +31 душно 1019.2 1018.7
15 16.02 ЮВ 8 10 км 9/0
[Ac trans]
+25.0 +16.0 57 +28 +28 жарко 1013.5 1013.0
18 16.02 СВ 5 10 км 1/0
[Ac trans]
+22.2 +16.8 71 +27 +27 душно 1015.2 1014.7 +25.6
21 16.02 В 5 10 км 6/0
[Ac trans]
+22.6 +16.3 68 +27 +27 душно 1012.3 1011.8
00 17.02 СВ 3 10 км 9/0
[Ac trans]
+24.2 +16.3 61 +28 +28 душно 1015.3 1014.8
03 17.02 ЮВ 3 10 км 10/1 1350 м
[Sc Ac As]
+21.7 +18.2 80 +26 +26 душно 1014.8 1014.3
06 17.02 Ю 6 8000 м пыль {дождь} 9/0
[As trans]
+25.8 +7.6 31 +26 +27 жарко 1014.2 1013.7 +21.5 0.2
12 17.02 З 4 3000 м пыль 9/0
[As trans]
+29.2 +11.1 33 +30 +31 жарко 1012.5 1012.0
15 17.02 В 3 8000 м пыль 9/0
[As trans]
+24.6 +17.2 63 +28 +28 душно 1011.9 1011.4
18 17.02 В 3 7000 м пыль {дождь} 9/0
[As trans]
+23.2 +17.7 71 +29 +29 душно 1014.4 1013.9 +30.4 0.2
21 17.02 СВ 4 6000 м слабый дождь 9/0
[As trans]
+22.6 +17.8 74 +28 +28 душно 1013.5 1013.0
00 18.02 СЗ 5 6000 м слабый дождь 9/5 450 м
[Sc As trans]
+20.9 +18.5 86 +25 +25 комфорт 1015.4 1014.9 3
03 18.02 З 6 10 км 9/9 600 м
[Sc]
+19.9 +15.0 73 +22 +22 комфорт 1018.4 1017.9
06 18.02 З 4 10 км в посл. час дождь 9/9 1000 м
[Sc]
+21.1 +9.2 46 +22 +23 комфорт 1021.4 1020.9 +19.4 4
09 18.02 З 9 10 км сильная гроза с градом 3/0
[Ac trans]
+21.5 +8.6 44 +23 +24 комфорт 1021.2 1020.7
12 18.02 З 8 10 км 8/0 2000 м
[As trans]
+21.1 +7.1 40 +22 +22 комфорт 1021.0 1020.5
15 18.02 З 8 10 км 8/0 2000 м
[As trans]
+19.0 +7.2 46 +19 +19 прохладно 1022.5 1021.9
18 18.02 З 7 10 км 5/3 1050 м
[Sc As trans]
+18.2 +8.8 54 +18 +18 прохладно 1023.8 1023.3 +22.1
21 18.02 З 5 10 км 3/3 1050 м
[Sc]
+18.2 +8.8 54 +18 +18 по сезону 1023.2 1022.7
03 19.02 СЗ 6 10 км 6/6 900 м
[Sc]
+17.7 +9.4 58 +17 +17 прохладно 1024.3 1023.8
06 19.02 СЗ 6 6000 м пыль 9/5 900 м
[Sc Ac trans]
+18.9 +9.8 55 +19 +20 прохладно 1026.5 1026.0 +17.7
09 19.02 СЗ 6 6000 м пыль 6/3 900 м
[Sc Ac trans]
+19.1 +9.4 53 +19 +22 прохладно 1025.2 1024.7
18 19.02 З 4 6000 м пыль ясно +17.9 +9.9 59 +18 +18 прохладно 1024.7 1024.1 +20.0
21 19.02 З 5 6000 м пыль ясно +17.4 +9.9 61 +17 +17 по сезону 1023.0 1022.4
03 20.02 Ю 4 6000 м мгла 5/0
[As op]
+15.9 +10.9 72 +15 +15 прохладно 1022.1 1021.5
06 20.02 Ю 2 4000 м пыль 8/3 900 м
[Sc Ac trans]
+17.3 +11.2 67 +18 +22 прохладно 1022.3 1021.8 +15.8
09 20.02 З 6 7000 м пыль 9/5 900 м
[Sc Ac trans]
+20.5 +11.3 56 +22 +24 комфорт 1021.3 1020.8
15 20.02 З 5 7000 м пыль 9/6 900 м
[Sc Ac trans]
+18.8 +11.2 61 +19 +19 прохладно 1019.9 1019.4
18 20.02 ЮЗ 3 10 км 8/3 700 м
[Sc Ac trans]
+18.7 +10.9 60 +20 +20 по сезону 1020.0 1019.5 +20.9
21 20.02 ЮЗ 2 10 км 9/3 900 м
[Sc Ac trans]
+18.8 +11.2 61 +20 +20 тепло 1018.0 1017.5
00 21.02 ЮЗ 3 10 км слабый дождь 9/3 900 м
[Sc Ac trans]
+18.0 +12.3 69 +18 +18 по сезону 1017.2 1016.7
03 21.02 ЮВ 4 7000 м слабый дождь 10/4 700 м
[Sc As trans]
+17.2 +13.6 79 +17 +17 прохладно 1017.8 1017.3
06 21.02 ЮЗ 3 10 км 9/4 700 м
[Sc As trans]
+19.5 +13.3 67 +21 +24 комфорт 1019.5 1019.0 +16.9 0.2
12 21.02 З 5 10 км 8/8 800 м
[Sc]
+20.3 +13.1 63 +22 +23 комфорт 1015.3 1014.8 0.0
15 21.02 З 4 10 км 6/6 800 м
[Sc]
+19.5 +12.8 65 +21 +21 комфорт 1016.4 1015.9

 

Местоположение метеостанции Dubai (ОАЭ): широта 25.25 долгота 55.33 высота над уровнем моря 5 м.

В архиве по умолчанию представлена погода в Dubai за последнюю неделю. Архивные данные за месяц целиком и за предыдущие месяцы, начиная с января 2011 года, Вы можете получить, выбрав интересующий диапазон дат из раскрывающегося списка и нажав кнопку "Ввод!".

Внимание! Время в таблицах - всемирное. Для получения местного времени необходимо прибавить поправку, которая в Dubai равна 4 ч.

Смотрите также архив погоды в соседних городах и на ближайших метеорологических станциях:

Погода в Sharjah (ОАЭ) (21 км)
Погода в Dubai Al Maktoum Int Airport (ОАЭ) (43 км)
Погода в Ras Al Khaimah Int Airport (ОАЭ) (73 км)
Погода в Abu Musa Island (Иран) (82 км)
Погода в Diba (Оман) (101 км)
Погода в Fujairah (ОАЭ) (102 км)
Погода в Sirri Island (Иран) (107 км)
Погода в Al Ain Int Airport (ОАЭ) (112 км)
Погода в Abu Dhabi (ОАЭ) (114 км)
Погода в Buraimi (Оман) (122 км)

Пояснения к столбцам:

Ветер - указаны скорость ветра в м/с - средняя за 10 мин, порывы в срок и между сроками (в фигурных скобках) и направление, откуда дует ветер: С - северный, СВ - северо-восточный, В - восточный, ЮВ - юго-восточный, Ю - южный, ЮЗ - юго-западный, З - западный, СЗ - северо-западный.
Видимость - горизонтальная дальность видимости в метрах или километрах. При видимости от 1 до 10 км при отсутствии осадков обычно наблюдается дымка, при ухудшении видимости до 1 км и менее - туман. В сухую погоду видимость может ухудшаться дымом, пылью или мглою.
Явления - указаны атмосферные явления, наблюдавшиеся в срок или в последний час перед сроком; фигурными скобками обозначены явления, наблюдавшиеся между сроками (за 1-3 часа до срока); квадратными скобками обозначены град или гололедные отложения с указанием их диаметра в мм.
Облачность - указаны через наклонную черту общая и нижняя облачность в баллах и высота нижней границы облаков в метрах; квадратными скобками обозначены формы облаков: Ci - перистые, Cs - перисто-слоистые, Cc - перисто-кучевые, Ac - высококучевые, As - высокослоистые, Sc - слоисто-кучевые, Ns - слоисто-дождевые, Cu - кучевые, Cb - кучево-дождевые. Подробнее классификацию облаков см. в Атласе облаков (PDF).
T - Температура воздуха - температура, измеренная на высоте 2 м над землей.
Td - Температура точки росы - температура, при понижении до которой содержащийся в воздухе водяной пар достигнет насыщения.
f - Относительная влажность воздуха - влажноcть воздуха, измеренная на высоте 2 м над землей.
Te - Эффективная температура - температура, которую ощущает одетый по сезону человек в тени. Характеристика душности погоды. При расчете учитывается влияние влажности воздуха и скорости ветра на теплоощущения человека.
Tes - Эффективная температура на солнце - температура, которую ощущает человек, с поправкой на солнечный нагрев. Характеристика знойности погоды. Зависит от высоты солнца над горизонтом, облачности и скорости ветра. Ночью, в пасмурную погоду, а также при ветре 12 м/с и более поправка равна нулю.
P - Атмосферное давление - приведенное к уровню моря атмосферное давление.
Po - Атмосферное давление - измеренное на уровне метеостанции атмосферное давление.
Tmin - Минимальная температура - минимум температуры воздуха на высоте 2 м над землей.
Tmax - Максимальная температура - максимум температуры воздуха на высоте 2 м над землей.
R - Количество осадков - Количество выпавших осадков, мм. При наведении курсора мыши на число - период времени, за который выпало указанное количество осадков.
S - Снежный покров - Высота снежного покрова, см. При наведении курсора мыши на число - состояние снежного покрова и степень покрытия местности в баллах.